Location: Clover
(42.5131°N, 114.6874°W)
Time: 22:41:52
(UTC+00:00)

Transit 2A - Pass Details

Date: 08 December 2025
Orbit: 589 x 956 km, 66.7° (Epoch: 23 January)

Event Time Altitude Azimuth Distance (km) Brightness Sun altitude
Rises 12:31:39 0° 178° (S) 3,143 9.3 -25.8°
Reaches altitude 10° 12:34:09 10° 168° (SSE) 2,286 8.7 -25.3°
Maximum altitude 12:38:41 30° 108° (ESE) 1,424 8.0 -24.5°
Drops below altitude 10° 12:43:39 10° 49° (NE) 2,513 9.1 -23.6°
Sets 12:46:31 0° 40° (NE) 3,510 9.8 -23.1°
